DW0775 Weather Reports


Display with metric or nautical units.
time (UTC)temp
F
wind
direction
speed
MPH
gust
MPH
rain 1hr
in
rain 24hr
in
rain mn
in
humidity
%
barometer
mb
20181016231838 51 235 3.0 10.0 0.00 0.00 0.00 62 1013.0
20181016231335 52 231 4.0 10.0 0.00 0.00 0.00 61 1012.9
20181016230829 52 186 5.0 12.0 0.00 0.00 0.00 61 1012.9
20181016230345 52 225 7.0 12.0 0.00 0.00 0.00 60 1013.0
20181016225839 52 225 5.0 11.0 0.00 0.00 0.00 60 1012.9
20181016225340 52 210 6.0 15.0 0.00 0.00 0.00 59 1013.0
20181016224837 52 248 5.0 15.0 0.00 0.00 0.00 59 1012.9
20181016224332 53 232 5.0 11.0 0.00 0.00 0.00 58 1012.9
20181016223846 53 238 5.0 17.0 0.00 0.00 0.00 57 1013.0
20181016223343 53 230 5.0 17.0 0.00 0.00 0.00 57 1013.0
20181016222838 53 278 8.0 17.0 0.00 0.00 0.00 56 1013.0
20181016222338 53 198 9.0 16.0 0.00 0.00 0.00 56 1013.1
20181016221832 54 246 7.0 14.0 0.00 0.00 0.00 55 1013.0
20181016221329 54 211 7.0 21.0 0.00 0.00 0.00 55 1013.0
20181016220846 54 229 10.0 21.0 0.00 0.00 0.00 54 1012.9
20181016220341 54 214 9.0 22.0 0.00 0.00 0.00 54 1012.9
20181016215836 54 212 12.0 22.0 0.00 0.00 0.00 53 1012.8
20181016215334 54 218 9.0 17.0 0.00 0.00 0.00 53 1012.9
20181016214828 54 311 9.0 17.0 0.00 0.00 0.00 52 1012.8
20181016214345 54 239 7.0 18.0 0.00 0.00 0.00 52 1012.8
20181016213840 55 207 9.0 21.0 0.00 0.00 0.00 52 1012.7
20181016213335 55 262 11.0 21.0 0.00 0.00 0.00 51 1012.8
20181016212831 55 236 7.0 18.0 0.00 0.00 0.00 52 1012.8
20181016212329 55 220 11.0 18.0 0.00 0.00 0.00 50 1012.7
20181016211842 55 248 10.0 21.0 0.00 0.00 0.00 50 1012.9
20181016211339 55 229 10.0 23.0 0.00 0.00 0.00 50 1012.9
20181016210834 55 250 11.0 23.0 0.00 0.00 0.00 49 1012.9
20181016210334 55 198 10.0 23.0 0.00 0.00 0.00 49 1012.8
20181016205829 55 233 10.0 22.0 0.00 0.00 0.00 49 1012.9
20181016205347 55 242 14.0 22.0 0.00 0.00 0.00 49 1013.0
20181016204840 55 247 10.0 21.0 0.00 0.00 0.00 49 1013.0
20181016204340 56 215 12.0 21.0 0.00 0.00 0.00 49 1012.9
20181016203834 55 216 9.0 25.0 0.00 0.00 0.00 49 1013.0
20181016203327 55 221 8.0 25.0 0.00 0.00 0.00 49 1012.9
20181016202842 55 256 9.0 21.0 0.00 0.00 0.00 50 1013.0
20181016202339 55 238 10.0 30.0 0.00 0.00 0.00 50 1013.2
20181016201833 55 247 13.0 30.0 0.00 0.00 0.00 49 1013.1
20181016201329 55 226 12.0 27.0 0.00 0.00 0.00 49 1013.3
20181016200844 55 240 15.0 23.0 0.00 0.00 0.00 49 1013.3
20181016200339 55 236 10.0 19.0 0.00 0.00 0.00 48 1013.2
20181016195834 55 240 10.0 27.0 0.00 0.00 0.00 49 1013.2
20181016195331 55 268 12.0 27.0 0.00 0.00 0.00 49 1013.3
20181016194844 55 249 14.0 23.0 0.00 0.00 0.00 49 1013.5
20181016194339 55 211 13.0 23.0 0.00 0.00 0.00 48 1013.5
20181016193840 55 206 12.0 24.0 0.00 0.00 0.00 48 1013.5
20181016193340 55 254 11.0 24.0 0.00 0.00 0.00 48 1013.5
20181016192839 55 200 6.0 17.0 0.00 0.00 0.00 50 1013.5
20181016192340 55 219 11.0 17.0 0.00 0.00 0.00 50 1013.7
20181016191831 55 220 13.0 20.0 0.00 0.00 0.00 49 1013.7
20181016191329 55 238 11.0 21.0 0.00 0.00 0.00 49 1014.0
20181016190844 54 228 13.0 23.0 0.00 0.00 0.00 48 1014.0
20181016190340 54 229 14.0 23.0 0.00 0.00 0.00 48 1014.1
20181016185835 54 217 10.0 22.0 0.00 0.00 0.00 51 1014.3
20181016185332 54 230 11.0 22.0 0.00 0.00 0.00 50 1014.5
20181016184826 54 244 10.0 26.0 0.00 0.00 0.00 50 1014.5
20181016184342 54 204 16.0 26.0 0.00 0.00 0.00 49 1014.5
20181016183837 54 208 14.0 25.0 0.00 0.00 0.00 49 1014.5
20181016183333 54 200 11.0 25.0 0.00 0.00 0.00 51 1014.6
20181016182828 54 227 10.0 24.0 0.00 0.00 0.00 50 1014.7
20181016182330 54 232 13.0 21.0 0.00 0.00 0.00 50 1014.9
20181016181844 54 204 11.0 27.0 0.00 0.00 0.00 50 1014.9
20181016181341 54 213 11.0 27.0 0.00 0.00 0.00 50 1015.0
20181016180837 54 197 15.0 23.0 0.00 0.00 0.00 51 1015.0
20181016180331 54 208 11.0 23.0 0.00 0.00 0.00 51 1015.1
20181016175826 54 188 12.0 22.0 0.00 0.00 0.00 51 1015.3
20181016175343 53 180 13.0 28.0 0.00 0.00 0.00 51 1015.4
20181016174837 53 226 12.0 28.0 0.00 0.00 0.00 52 1015.4
20181016174334 53 238 13.0 23.0 0.00 0.00 0.00 53 1015.5
20181016173828 53 220 10.0 20.0 0.00 0.00 0.00 53 1015.5
20181016173344 53 263 12.0 20.0 0.00 0.00 0.00 53 1015.8
20181016172839 52 229 10.0 23.0 0.00 0.00 0.00 55 1015.9
20181016172337 52 214 12.0 23.0 0.00 0.00 0.00 58 1015.9
20181016171831 52 236 12.0 21.0 0.00 0.00 0.00 59 1016.0
20181016171327 51 176 9.0 21.0 0.00 0.00 0.00 61 1016.1
20181016170844 51 240 10.0 21.0 0.00 0.00 0.00 61 1016.1
20181016170338 51 213 11.0 21.0 0.00 0.00 0.00 62 1016.2
20181016165836 50 203 8.0 21.0 0.00 0.00 0.00 62 1016.4
20181016165332 50 250 7.0 17.0 0.00 0.00 0.00 62 1016.5
20181016164846 50 238 12.0 20.0 0.00 0.00 0.00 63 1016.5
20181016164343 50 281 11.0 20.0 0.00 0.00 0.00 63 1016.6
20181016163838 50 226 11.0 20.0 0.00 0.00 0.00 62 1016.7
20181016163334 50 195 9.0 21.0 0.00 0.00 0.00 64 1016.7
20181016162831 50 171 9.0 28.0 0.00 0.00 0.00 62 1016.7
20181016162329 50 245 14.0 28.0 0.00 0.00 0.00 61 1016.7
20181016161844 50 236 6.0 19.0 0.00 0.00 0.00 64 1016.8
20181016161341 50 243 11.0 23.0 0.00 0.00 0.00 63 1016.8
20181016160840 49 198 14.0 23.0 0.00 0.00 0.00 63 1017.0
20181016160335 49 206 10.0 27.0 0.00 0.00 0.00 64 1017.0
20181016155828 49 248 12.0 27.0 0.00 0.00 0.00 65 1017.1
20181016155325 49 219 9.0 26.0 0.00 0.00 0.00 66 1017.2
20181016154840 49 265 10.0 32.0 0.00 0.00 0.00 64 1017.2
20181016154338 49 230 17.0 33.0 0.00 0.00 0.00 66 1016.9
20181016153838 49 213 10.0 29.0 0.00 0.00 0.00 66 1017.0
20181016153334 48 217 13.0 22.0 0.00 0.00 0.00 66 1017.4
20181016152830 48 236 15.0 22.0 0.00 0.00 0.00 66 1017.4
20181016152346 48 229 10.0 21.0 0.00 0.00 0.00 67 1017.4
20181016151839 48 207 9.0 24.0 0.00 0.00 0.00 70 1017.3
20181016151336 47 231 11.0 28.0 0.00 0.00 0.00 70 1017.5
20181016150832 47 213 10.0 28.0 0.00 0.00 0.00 70 1017.6
20181016150328 47 202 13.0 23.0 0.00 0.00 0.00 72 1017.6
20181016145843 46 211 12.0 24.0 0.00 0.00 0.00 72 1017.5
20181016145341 46 257 15.0 24.0 0.00 0.00 0.00 72 1017.6
20181016144835 46 212 8.0 21.0 0.00 0.00 0.00 73 1017.6
20181016144330 46 215 14.0 20.0 0.00 0.00 0.00 74 1017.8
20181016143846 45 209 15.0 20.0 0.00 0.00 0.00 74 1017.8
20181016143341 45 264 11.0 27.0 0.00 0.00 0.00 75 1018.2
20181016142840 45 235 13.0 27.0 0.00 0.00 0.00 75 1018.3
20181016142339 45 223 10.0 20.0 0.00 0.00 0.00 76 1018.3
20181016141835 44 242 12.0 24.0 0.00 0.00 0.00 77 1018.5
20181016141331 44 157 12.0 18.0 0.00 0.00 0.00 78 1018.2
20181016140846 43 223 12.0 19.0 0.00 0.00 0.00 79 1018.3
20181016140340 43 225 10.0 19.0 0.00 0.00 0.00 80 1018.4
20181016135834 42 210 9.0 17.0 0.00 0.00 0.00 81 1018.4
20181016135332 42 202 9.0 17.0 0.00 0.00 0.00 82 1018.5
20181016134845 42 209 10.0 18.0 0.00 0.00 0.00 83 1018.7
20181016134341 41 232 9.0 18.0 0.00 0.00 0.00 83 1018.8
20181016133838 41 228 7.0 18.0 0.00 0.00 0.00 84 1019.1
20181016133332 41 201 9.0 18.0 0.00 0.00 0.00 84 1019.2
20181016132826 40 204 7.0 19.0 0.00 0.00 0.00 85 1019.2
20181016132344 40 238 8.0 19.0 0.00 0.00 0.00 85 1019.1
20181016131838 40 232 12.0 17.0 0.00 0.00 0.00 86 1019.1
20181016131336 39 221 11.0 17.0 0.00 0.00 0.00 86 1019.1
20181016130831 39 207 10.0 17.0 0.00 0.00 0.00 87 1019.2
20181016130345 39 205 9.0 17.0 0.00 0.00 0.00 87 1019.2
20181016125840 38 225 7.0 15.0 0.00 0.00 0.00 87 1019.3
20181016125342 38 240 8.0 15.0 0.00 0.00 0.00 88 1019.4
20181016124836 38 213 10.0 16.0 0.00 0.00 0.00 88 1019.4
20181016124333 38 213 10.0 16.0 0.00 0.00 0.00 88 1019.4
20181016123829 38 206 6.0 15.0 0.00 0.00 0.00 88 1019.4
20181016123345 37 208 7.0 15.0 0.00 0.00 0.00 89 1019.5
20181016122840 37 214 8.0 15.0 0.00 0.00 0.00 89 1019.6
20181016122341 37 215 6.0 12.0 0.00 0.00 0.00 89 1019.6
20181016121836 37 229 9.0 12.0 0.00 0.00 0.00 89 1019.7
20181016121334 37 210 5.0 11.0 0.00 0.00 0.00 89 1019.7
20181016120829 37 228 6.0 12.0 0.00 0.00 0.00 89 1019.6
20181016120345 37 214 7.0 12.0 0.00 0.01 0.00 89 1019.5
20181016115838 37 206 5.0 11.0 0.00 0.01 0.00 89 1019.6
20181016115336 36 203 5.0 11.0 0.00 0.01 0.00 89 1019.7
20181016114829 36 209 7.0 12.0 0.00 0.01 0.00 89 1019.8
20181016114346 36 209 6.0 12.0 0.00 0.01 0.00 89 1019.8
20181016113841 36 203 7.0 13.0 0.00 0.01 0.00 89 1019.7
20181016113340 36 207 8.0 13.0 0.00 0.01 0.00 89 1019.8
20181016112834 36 204 5.0 13.0 0.00 0.01 0.00 89 1019.8
20181016112332 36 226 6.0 13.0 0.00 0.01 0.00 89 1019.8
20181016111846 36 219 8.0 13.0 0.00 0.01 0.00 89 1019.8
20181016111342 36 211 9.0 13.0 0.00 0.01 0.00 89 1019.8
20181016110837 36 202 6.0 12.0 0.00 0.01 0.00 89 1019.9
20181016110334 36 204 7.0 13.0 0.00 0.07 0.00 89 1019.9
20181016105829 36 220 6.0 13.0 0.00 0.07 0.00 89 1020.0
20181016105346 36 210 8.0 13.0 0.00 0.07 0.00 89 1020.0
20181016104839 36 217 6.0 12.0 0.00 0.07 0.00 89 1020.1
20181016104340 36 208 6.0 14.0 0.00 0.07 0.00 89 1020.1
20181016103837 36 207 6.0 14.0 0.00 0.07 0.00 89 1020.2
20181016103334 36 202 5.0 13.0 0.00 0.07 0.00 88 1020.2
20181016102830 36 204 6.0 10.0 0.00 0.07 0.00 88 1020.1
20181016102348 36 205 4.0 9.0 0.00 0.07 0.00 88 1020.3
20181016101826 36 205 6.0 9.0 0.00 0.07 0.00 88 1020.2
20181016101341 36 209 5.0 8.0 0.00 0.07 0.00 87 1020.2
20181016100835 36 213 5.0 11.0 0.00 0.07 0.00 87 1020.2
20181016100332 36 215 7.0 11.0 0.00 0.08 0.00 87 1020.2
20181016095828 36 214 7.0 11.0 0.00 0.08 0.00 86 1020.2
20181016095345 36 215 8.0 13.0 0.00 0.08 0.00 86 1020.3
20181016094840 36 212 9.0 13.0 0.00 0.08 0.00 86 1020.3
20181016094341 37 233 8.0 13.0 0.00 0.08 0.00 85 1020.3
20181016093836 37 213 8.0 13.0 0.00 0.08 0.00 85 1020.4
20181016093333 37 215 8.0 13.0 0.00 0.08 0.00 85 1020.5
20181016092828 37 215 7.0 13.0 0.00 0.08 0.00 85 1020.5
20181016092346 37 223 8.0 12.0 0.00 0.08 0.00 85 1020.5
20181016091840 37 213 8.0 12.0 0.00 0.08 0.00 84 1020.6
20181016091337 37 221 7.0 12.0 0.00 0.08 0.00 84 1020.6
20181016090831 37 209 10.0 12.0 0.00 0.08 0.00 84 1020.6
20181016090345 37 212 7.0 11.0 0.00 0.08 0.00 84 1020.7
20181016085837 37 217 6.0 11.0 0.00 0.08 0.00 84 1020.8
20181016085340 37 217 7.0 11.0 0.00 0.08 0.00 84 1020.8
20181016084837 37 215 6.0 10.0 0.00 0.08 0.00 83 1020.8
20181016084334 37 213 6.0 9.0 0.00 0.08 0.00 83 1020.9
20181016083830 38 209 6.0 7.0 0.00 0.08 0.00 83 1020.9
20181016083344 38 210 5.0 7.0 0.00 0.08 0.00 83 1021.0
20181016082839 38 211 3.0 8.0 0.00 0.08 0.00 83 1021.1
20181016082345 37 211 4.0 8.0 0.00 0.08 0.00 83 1021.1
20181016081845 37 211 5.0 8.0 0.00 0.08 0.00 83 1021.1
20181016081342 37 214 5.0 8.0 0.00 0.08 0.00 83 1021.2
20181016080838 37 213 6.0 9.0 0.00 0.08 0.00 83 1021.2
20181016080335 37 212 6.0 9.0 0.00 0.08 0.00 83 1021.2
20181016075828 37 210 5.0 9.0 0.00 0.08 0.00 83 1021.3
20181016075346 37 205 0.0 0.0 0.00 0.08 0.00 83 1021.2
20181016074840 37 204 0.0 0.0 0.00 0.08 0.00 84 1021.2
20181016074338 37 209 0.0 0.0 0.00 0.08 0.00 84 1021.3
20181016073832 37 204 0.0 0.0 0.00 0.08 0.00 84 1021.4
20181016073333 37 205 0.0 0.0 0.00 0.08 0.00 84 1021.4
20181016072828 37 211 0.0 0.0 0.00 0.08 0.00 83 1021.5
20181016072345 37 205 0.0 0.0 0.00 0.08 0.00 83 1021.5
20181016071838 37 226 0.0 0.0 0.00 0.08 0.00 83 1021.6
20181016071336 37 244 0.0 0.0 0.00 0.08 0.00 83 1021.7
20181016070832 37 290 0.0 0.0 0.00 0.08 0.00 83 1021.7
20181016070328 37 293 0.0 0.0 0.00 0.08 0.00 83 1021.7
20181016065843 37 295 0.0 0.0 0.00 0.08 0.00 83 1021.8
20181016065341 37 295 0.0 0.0 0.00 0.08 0.00 83 1021.8
20181016064834 37 296 0.0 0.0 0.00 0.08 0.00 83 1021.9
20181016064330 37 296 0.0 0.0 0.00 0.08 0.00 83 1021.9
20181016063846 37 299 0.0 0.0 0.00 0.08 0.00 83 1021.9
20181016063341 37 299 0.0 0.0 0.00 0.08 0.00 82 1021.8
20181016062835 37 299 0.0 0.0 0.00 0.08 0.00 82 1021.8
20181016062332 37 299 0.0 0.0 0.00 0.08 0.00 82 1021.8
20181016061845 37 299 0.0 0.0 0.00 0.08 0.00 82 1021.7
20181016061341 37 299 0.0 0.0 0.00 0.08 0.00 82 1021.7
20181016060840 37 300 0.0 0.0 0.00 0.08 0.00 82 1021.8
20181016060336 37 300 0.0 0.0 0.00 0.08 0.00 81 1021.8
20181016055831 37 300 0.0 0.0 0.00 0.08 0.00 81 1021.8
20181016055329 37 300 0.0 0.0 0.00 0.08 0.00 80 1021.7
20181016054843 36 300 0.0 0.0 0.00 0.08 0.00 80 1021.8
20181016054339 36 300 0.0 0.0 0.00 0.08 0.00 80 1021.8
20181016053835 36 300 0.0 0.0 0.00 0.08 0.00 79 1021.7
20181016053331 36 300 0.0 0.0 0.00 0.08 0.00 79 1021.7
20181016052827 36 301 0.0 0.0 0.00 0.08 0.00 79 1021.7
20181016052344 36 306 0.0 0.0 0.00 0.08 0.00 79 1021.6
20181016051838 36 307 0.0 0.0 0.00 0.08 0.00 78 1021.7
20181016051336 36 308 0.0 0.0 0.00 0.08 0.00 78 1021.7
20181016050831 36 308 0.0 0.0 0.00 0.08 0.00 78 1021.6
20181016050326 36 308 0.0 0.0 0.00 0.08 0.00 78 1021.7
20181016045841 36 308 0.0 0.0 0.00 0.08 0.00 77 1021.7
20181016045339 36 308 0.0 0.0 0.00 0.08 0.00 77 1021.7
20181016044840 36 308 0.0 0.0 0.00 0.08 0.00 77 1021.8
20181016044336 36 308 0.0 0.0 0.00 0.08 0.00 77 1021.9
20181016043831 36 308 0.0 0.0 0.00 0.08 0.00 77 1021.8
20181016043346 37 308 0.0 0.0 0.00 0.08 0.00 77 1021.8
20181016042839 37 308 0.0 0.0 0.00 0.08 0.00 77 1021.8
20181016042336 37 308 0.0 0.0 0.00 0.08 0.00 77 1021.8
20181016041830 37 308 0.0 0.0 0.00 0.08 0.00 76 1021.8
20181016041328 37 308 0.0 0.0 0.00 0.08 0.00 76 1021.9
20181016040827 37 308 0.0 0.0 0.00 0.08 0.00 75 1021.9
20181016040343 37 308 0.0 0.0 0.00 0.08 0.08 75 1021.8
20181016035835 37 308 0.0 0.0 0.00 0.08 0.08 75 1021.8
20181016035330 37 308 0.0 0.0 0.00 0.08 0.08 75 1021.9
20181016034845 37 308 0.0 0.0 0.00 0.08 0.08 75 1021.9
20181016034341 37 308 0.0 0.0 0.00 0.08 0.08 75 1022.0
20181016033840 37 308 0.0 0.0 0.00 0.08 0.08 74 1022.1
20181016033339 37 308 0.0 0.0 0.00 0.08 0.08 74 1022.0
20181016032838 37 308 0.0 0.0 0.00 0.08 0.08 74 1022.0
20181016032335 37 308 0.0 0.0 0.00 0.08 0.08 73 1021.9
20181016031829 37 308 0.0 2.0 0.00 0.08 0.08 73 1021.8
20181016031327 38 308 0.0 2.0 0.00 0.08 0.08 72 1021.8
20181016030843 38 308 0.0 3.0 0.00 0.08 0.08 72 1021.8
20181016030339 38 308 1.0 4.0 0.00 0.08 0.08 71 1021.8
20181016025835 38 308 1.0 4.0 0.00 0.08 0.08 71 1021.7
20181016025336 38 308 1.0 4.0 0.00 0.08 0.08 70 1021.8
20181016024828 39 308 1.0 4.0 0.00 0.08 0.08 70 1021.9
20181016024326 39 308 1.0 4.0 0.00 0.08 0.08 69 1021.8
20181016023841 39 311 0.0 1.0 0.00 0.08 0.08 69 1021.6
20181016023336 39 311 0.0 6.0 0.00 0.08 0.08 68 1021.6
20181016022832 39 312 3.0 6.0 0.00 0.08 0.08 68 1021.7
20181016022327 39 325 3.0 6.0 0.00 0.08 0.08 68 1021.6
20181016021841 40 344 1.0 9.0 0.00 0.08 0.08 68 1021.7
20181016021337 40 305 2.0 12.0 0.00 0.08 0.08 68 1021.7
20181016020840 40 278 5.0 12.0 0.00 0.08 0.08 68 1021.7
20181016020336 40 315 0.0 0.0 0.00 0.08 0.08 69 1021.6
20181016015830 40 319 0.0 0.0 0.00 0.08 0.08 69 1021.6
20181016015328 40 302 0.0 0.0 0.00 0.08 0.08 69 1021.5
20181016014841 40 257 0.0 0.0 0.00 0.08 0.08 69 1021.4
20181016014339 40 259 0.0 0.0 0.00 0.08 0.08 68 1021.5
20181016013835 40 261 0.0 0.0 0.00 0.08 0.08 68 1021.5
20181016013331 40 240 0.0 0.0 0.00 0.08 0.08 68 1021.4
20181016012827 40 298 0.0 0.0 0.00 0.08 0.08 68 1021.5
20181016012345 40 298 0.0 0.0 0.00 0.08 0.08 68 1021.5
20181016011840 40 298 0.0 0.0 0.00 0.08 0.08 67 1021.4
20181016011335 40 298 0.0 0.0 0.00 0.08 0.08 66 1021.3
20181016010831 40 302 0.0 3.0 0.00 0.08 0.08 66 1021.3
20181016010326 40 298 2.0 7.0 0.00 0.08 0.08 65 1021.3
20181016005842 40 298 3.0 7.0 0.00 0.08 0.08 65 1021.3
20181016005338 41 261 2.0 7.0 0.00 0.08 0.08 65 1021.2
20181016004837 41 279 2.0 7.0 0.00 0.08 0.08 65 1021.2
20181016004336 41 270 1.0 7.0 0.00 0.08 0.08 65 1021.2
20181016003831 41 272 2.0 11.0 0.00 0.08 0.08 64 1021.1
20181016003346 41 263 3.0 11.0 0.00 0.08 0.08 64 1021.1
20181016002841 41 311 2.0 11.0 0.00 0.08 0.08 64 1021.0
20181016002337 41 288 3.0 11.0 0.00 0.08 0.08 64 1021.0
20181016001831 41 259 2.0 11.0 0.00 0.08 0.08 64 1020.9
20181016001328 41 288 3.0 11.0 0.00 0.08 0.08 64 1020.9
20181016000844 41 297 3.0 7.0 0.00 0.08 0.08 64 1020.9
20181016000340 41 294 3.0 10.0 0.00 0.08 0.08 64 1020.8
20181015235834 41 295 1.0 10.0 0.00 0.08 0.08 64 1020.8
20181015235330 41 253 3.0 10.0 0.00 0.08 0.08 64 1020.8
20181015234845 41 277 3.0 10.0 0.00 0.08 0.08 64 1020.6
20181015234340 41 271 2.0 9.0 0.00 0.08 0.08 64 1020.6
20181015233840 41 271 2.0 9.0 0.00 0.08 0.08 63 1020.6
20181015233336 41 298 3.0 9.0 0.00 0.08 0.08 63 1020.5
20181015232835 41 346 2.0 10.0 0.00 0.08 0.08 62 1020.4
20181015232332 41 293 2.0 10.0 0.00 0.08 0.08 61 1020.4